Location: Newark
(16.3678°N, 77.8722°E)
Time: 09:50:46
(UTC+00:00)

Vanguard 1 - All Passes

Search period start: 09 December 2019 00:00
Search period end: 19 December 2019 00:00
Orbit: 652 x 3831 km, 34.3° (Epoch: 08 December)

Date Brightness Start Highest point End Pass type
(mag) Time Alt. Az. Time Alt. Az. Time Alt. Az.
09 Dec - 00:35:47 10° W 00:57:54 47° NNW 01:13:17 10° NE visible
09 Dec - 03:09:36 10° WNW 03:26:28 39° N 03:36:17 10° ENE daylight
09 Dec - 05:38:41 10° NW 05:51:15 69° NNE 05:57:55 10° ESE daylight
09 Dec - 08:05:47 10° W 08:11:22 22° SW 08:15:26 10° S daylight
09 Dec - 17:46:51 10° S 17:57:54 21° SE 18:11:54 10° E visible
09 Dec - 20:03:45 10° SW 20:22:40 64° SE 20:45:39 10° ENE visible
09 Dec - 22:27:46 10° WSW 22:50:36 69° NNW 23:11:14 10° NE visible
10 Dec - 00:59:01 10° WNW 01:20:25 43° N 01:34:51 10° ENE daylight
10 Dec - 03:32:06 10° WNW 03:48:39 43° N 03:57:58 10° E daylight
10 Dec - 06:00:22 10° WNW 06:12:29 88° SSW 06:18:54 10° SE daylight
10 Dec - 08:29:46 10° WSW 08:31:53 11° SW 08:33:46 10° SSW daylight
10 Dec - 18:05:50 10° S 18:19:01 29° SE 18:36:41 10° E visible
10 Dec - 20:24:34 10° SW 20:44:08 77° SE 21:07:33 10° ENE visible
10 Dec - 22:50:01 10° W 23:12:51 60° NNW 23:32:41 10° NE visible
11 Dec - 01:22:16 10° WNW 01:43:01 42° N 01:56:33 10° ENE daylight
11 Dec - 03:54:18 10° NW 04:10:41 50° NNE 04:19:35 10° E daylight
11 Dec - 06:22:11 10° WNW 06:33:25 61° SW 06:39:35 10° SE daylight
11 Dec - 18:25:29 10° SSW 18:40:03 39° SE 19:00:16 10° ENE visible
11 Dec - 20:45:41 10° SW 21:05:46 90° S 21:29:14 10° ENE visible
11 Dec - 23:12:36 10° W 23:35:17 53° NNW 23:54:14 10° NE visible
12 Dec - 01:45:22 10° WNW 02:05:37 42° N 02:18:23 10° ENE daylight
12 Dec - 04:16:18 10° NW 04:32:29 60° NNE 04:41:00 10° ESE daylight
12 Dec - 06:44:16 10° WNW 06:54:06 40° SW 06:59:56 10° SSE daylight
12 Dec - 16:34:20 10° SE 16:37:52 11° SE 16:41:47 10° ESE visible
12 Dec - 18:45:35 10° SSW 19:01:05 51° SE 19:23:04 10° ENE visible
12 Dec - 21:07:07 10° WSW 21:27:39 78° NNW 21:50:51 10° ENE visible
12 Dec - 23:35:26 10° W 23:57:55 49° NNW 00:15:54 10° ENE visible
13 Dec - 02:08:12 10° WNW 02:28:08 44° N 02:40:12 10° ENE daylight
13 Dec - 04:38:10 10° WNW 04:54:02 76° NNE 05:02:12 10° ESE daylight
13 Dec - 07:06:51 10° W 07:14:37 25° SW 07:19:47 10° S daylight
13 Dec - 16:50:11 10° S 16:58:57 18° SE 17:10:26 10° E visible
13 Dec - 19:06:01 10° SW 19:22:13 64° SE 19:45:24 10° ENE visible
13 Dec - 21:28:52 10° WSW 21:49:46 68° NNW 22:12:27 10° NE visible
13 Dec - 23:58:26 10° WNW 00:20:42 46° N 00:37:43 10° ENE visible
14 Dec - 02:30:44 10° WNW 02:50:29 49° NNE 03:01:58 10° E daylight
14 Dec - 05:00:01 10° WNW 05:15:18 84° SW 05:23:10 10° SE daylight
14 Dec - 07:30:32 10° W 07:35:04 15° SW 07:38:40 10° SSW daylight
14 Dec - 17:08:55 10° S 17:19:49 27° SE 17:35:27 10° E visible
14 Dec - 19:26:46 10° SW 19:43:33 78° SE 20:07:26 10° ENE visible
14 Dec - 21:50:57 10° W 22:12:07 60° NNW 22:34:07 10° NE visible
15 Dec - 00:21:26 10° WNW 00:43:33 45° N 00:59:39 10° ENE visible
15 Dec - 02:53:00 10° WNW 03:12:39 56° NNE 03:23:37 10° E daylight
15 Dec - 05:22:01 10° WNW 05:36:17 62° SW 05:43:50 10° SE daylight
15 Dec - 17:28:29 10° SSW 17:40:36 37° SE 17:59:08 10° ENE visible
15 Dec - 19:47:49 10° SW 20:05:08 89° NW 20:29:17 10° ENE visible
15 Dec - 22:13:18 10° W 22:34:43 53° NNW 22:55:54 10° ENE visible
16 Dec - 00:44:20 10° WNW 01:06:22 45° N 01:21:39 10° ENE visible
16 Dec - 03:15:04 10° NW 03:34:33 66° NNE 03:45:03 10° ESE daylight
16 Dec - 05:44:16 10° WNW 05:57:00 43° SW 06:04:10 10° SSE daylight
16 Dec - 17:48:31 10° SSW 18:01:26 50° SE 18:22:03 10° ENE visible
16 Dec - 20:09:09 10° WSW 20:26:58 77° NNW 20:51:03 10° ENE visible
16 Dec - 22:35:53 10° W 22:57:31 49° NNW 23:17:49 10° ENE visible
17 Dec - 01:07:01 10° WNW 01:29:03 48° N 01:43:38 10° E daylight
17 Dec - 03:37:02 10° WNW 03:56:11 81° NNE 04:06:15 10° ESE daylight
17 Dec - 06:07:00 10° WNW 06:17:31 29° SW 06:24:05 10° S daylight
17 Dec - 15:54:10 10° SSE 16:00:33 16° SE 16:08:47 10° E visible
17 Dec - 18:08:55 10° SW 18:22:25 63° SE 18:44:28 10° ENE visible
17 Dec - 20:30:46 10° WSW 20:49:05 66° NNW 21:12:50 10° ENE visible
17 Dec - 22:58:36 10° WNW 23:20:28 47° N 23:39:54 10° ENE visible
18 Dec - 01:29:27 10° WNW 01:51:35 53° NNE 02:05:31 10° E daylight
18 Dec - 03:59:00 10° WNW 04:17:31 82° SW 04:27:12 10° SE daylight
18 Dec - 06:30:38 10° W 06:37:58 18° SW 06:43:15 10° S daylight
18 Dec - 16:12:32 10° S 16:21:14 24° SE 16:34:02 10° E visible
18 Dec - 18:29:37 10° SW 18:43:37 78° SE 19:06:36 10° ENE visible
18 Dec - 20:52:41 10° W 21:11:29 58° NNW 21:34:43 10° ENE visible
